Погода в Ага-Хангиле

Россия / Забайкальский край     51°11′06″N   114°45′13″E
темп.,
°C
ветер,
м/с
пор.,
м/с
влажн.,
%
обл.,
%
осадки,
мм/ч
давл.,
гПа
погр.,
м
12 мая, ср
ср1200:00+8ссз7143339 0.0 1004363
03:00+5сз4946100 0.0 1005157
06:00+3зсз4106156 0.0 1007242
09:00+9сз711440 0.0 1005693
12:00+13сз710282 0.0 10042200
15:00+16сз792065 0.0 10033444
18:00+15сз792269 0.0 10022880
21:00+10зсз510434 0.0 1005246
13 мая, чт
чт1300:00+7зсз38572 0.0 1007163
03:00+6зсз612680 0.0 1008414
06:00+4зсз61357100 0.0 1009611
09:00+6зсз794295 0.0 10091147
12:00+9зсз5728100 0.0 10071659
15:00+9з6728100 0.1 10071848
18:00+8юз4432100 0.1 1005541
21:00+4ююз47575 0.2 1006136
14 мая, пт
пт1400:00+4зсз6134340 0.0 1007408
03:00+2зсз714460 0.0 1008446
06:000зсз612593 0.0 1009415
09:00+5ссз675825 0.0 1009927
12:00+8сз795368 0.1 10091622
15:00+12ссз7933100 0.1 10072548
18:00+12с5113151 0.0 10072616
21:00+8ссв11432 0.0 100910
15 мая, сб
сб1500:00+6зсз22451 0.0 101111
03:00+4зсз22490 0.0 101215
06:00+3з32520 0.0 101319
09:00+10зсз57340 0.0 1012580
12:00+14зсз67220 0.0 10101847
15:00+18зсз58160 0.0 10082460
18:00+19зсз79135 0.0 10063197
21:00+13з332695 0.0 100613
16 мая, вс
вс1600:00+11зсз614357 0.0 1008500
03:00+8зсз714485 0.0 1010703
06:00+6зсз916440 0.0 1010911
09:00+9зсз10155285 0.0 10101366
12:00+13сз111536100 0.0 10092066
15:00+17зсз11153276 0.0 10072561
18:00+14сз11194945 0.0 10081939
21:00+14сз6135179 0.0 10081259